Year,Month,Day,Hour,Minute,Value (Times are PST for temperature in C)
2009,09,24,00,00,17.50
2009,09,24,00,01,17.50
2009,09,24,00,02,17.40
2009,09,24,00,03,17.40
2009,09,24,00,04,17.40
2009,09,24,00,05,17.40
2009,09,24,00,06,17.30
2009,09,24,00,07,17.30
2009,09,24,00,08,17.30
2009,09,24,00,09,17.30
2009,09,24,00,10,17.20
2009,09,24,00,11,17.20
2009,09,24,00,12,17.20
2009,09,24,00,13,17.20
2009,09,24,00,14,17.20
2009,09,24,00,15,17.20
2009,09,24,00,16,17.20
2009,09,24,00,17,17.20
2009,09,24,00,18,17.20
2009,09,24,00,19,17.20
2009,09,24,00,20,17.20
2009,09,24,00,21,17.20
2009,09,24,00,22,17.20
2009,09,24,00,23,17.20
2009,09,24,00,24,17.20
2009,09,24,00,25,17.20
2009,09,24,00,26,17.20
2009,09,24,00,27,17.20
2009,09,24,00,28,17.10
2009,09,24,00,29,17.10
2009,09,24,00,30,17.10
2009,09,24,00,31,17.10
2009,09,24,00,32,17.10
2009,09,24,00,33,17.00
2009,09,24,00,34,17.00
2009,09,24,00,35,17.00
2009,09,24,00,36,16.90
2009,09,24,00,37,16.90
2009,09,24,00,38,16.90
2009,09,24,00,39,16.90
2009,09,24,00,40,16.80
2009,09,24,00,41,16.80
2009,09,24,00,42,16.80
2009,09,24,00,43,16.70
2009,09,24,00,44,16.70
2009,09,24,00,45,16.70
2009,09,24,00,46,16.60
2009,09,24,00,47,16.60
2009,09,24,00,48,16.60
2009,09,24,00,49,16.50
2009,09,24,00,50,16.50
2009,09,24,00,51,16.50
2009,09,24,00,52,16.40
2009,09,24,00,53,16.40
2009,09,24,00,54,16.40
2009,09,24,00,55,16.40
2009,09,24,00,56,16.30
2009,09,24,00,57,16.30
2009,09,24,00,58,16.30
2009,09,24,00,59,16.30
2009,09,24,01,00,16.20
2009,09,24,01,01,16.20
2009,09,24,01,02,16.20
2009,09,24,01,03,16.20
2009,09,24,01,04,16.10
2009,09,24,01,05,16.10
2009,09,24,01,06,16.10
2009,09,24,01,07,16.10
2009,09,24,01,08,16.00
2009,09,24,01,09,16.00
2009,09,24,01,10,16.00
2009,09,24,01,11,15.90
2009,09,24,01,12,15.90
2009,09,24,01,13,15.90
2009,09,24,01,14,15.90
2009,09,24,01,15,15.80
2009,09,24,01,16,15.80
2009,09,24,01,17,15.80
2009,09,24,01,18,15.80
2009,09,24,01,19,15.80
2009,09,24,01,20,15.80
2009,09,24,01,21,15.80
2009,09,24,01,22,15.80
2009,09,24,01,23,15.80
2009,09,24,01,24,15.70
2009,09,24,01,25,15.70
2009,09,24,01,26,15.70
2009,09,24,01,27,15.70
2009,09,24,01,28,15.60
2009,09,24,01,29,15.60
2009,09,24,01,30,15.60
2009,09,24,01,31,15.60
2009,09,24,01,32,15.50
2009,09,24,01,33,15.50
2009,09,24,01,34,15.50
2009,09,24,01,35,15.40
2009,09,24,01,36,15.40
2009,09,24,01,37,15.40
2009,09,24,01,38,15.40
2009,09,24,01,39,15.30
2009,09,24,01,40,15.30
2009,09,24,01,41,15.30
2009,09,24,01,42,15.30
2009,09,24,01,43,15.30
2009,09,24,01,44,15.20
2009,09,24,01,45,15.20
2009,09,24,01,46,15.20
2009,09,24,01,47,15.20
2009,09,24,01,48,15.10
2009,09,24,01,49,15.10
2009,09,24,01,50,15.00
2009,09,24,01,51,15.00
2009,09,24,01,52,15.00
2009,09,24,01,53,15.00
2009,09,24,01,54,15.00
2009,09,24,01,55,15.00
2009,09,24,01,56,15.00
2009,09,24,01,57,15.00
2009,09,24,01,58,15.00
2009,09,24,01,59,15.00
2009,09,24,02,00,15.00
2009,09,24,02,01,15.00
2009,09,24,02,02,15.00
2009,09,24,02,03,15.00
2009,09,24,02,04,15.00
2009,09,24,02,05,14.90
2009,09,24,02,06,14.90
2009,09,24,02,07,14.80
2009,09,24,02,08,14.80
2009,09,24,02,09,14.80
2009,09,24,02,10,14.80
2009,09,24,02,11,14.80
2009,09,24,02,12,14.70
2009,09,24,02,13,14.70
2009,09,24,02,14,14.70
2009,09,24,02,15,14.70
2009,09,24,02,16,14.70
2009,09,24,02,17,14.60
2009,09,24,02,18,14.60
2009,09,24,02,19,14.60
2009,09,24,02,20,14.60
2009,09,24,02,21,14.60
2009,09,24,02,22,14.50
2009,09,24,02,23,14.50
2009,09,24,02,24,14.50
2009,09,24,02,25,14.40
2009,09,24,02,26,14.40
2009,09,24,02,27,14.40
2009,09,24,02,28,14.40
2009,09,24,02,29,14.40
2009,09,24,02,30,14.40
2009,09,24,02,31,14.40
2009,09,24,02,32,14.40
2009,09,24,02,33,14.40
2009,09,24,02,34,14.40
2009,09,24,02,35,14.40
2009,09,24,02,36,14.40
2009,09,24,02,37,14.40
2009,09,24,02,38,14.40
2009,09,24,02,39,14.40
2009,09,24,02,40,14.40
2009,09,24,02,41,14.40
2009,09,24,02,42,14.40
2009,09,24,02,43,14.40
2009,09,24,02,44,14.40
2009,09,24,02,45,14.50
2009,09,24,02,46,14.50
2009,09,24,02,47,14.50
2009,09,24,02,48,14.50
2009,09,24,02,49,14.50
2009,09,24,02,50,14.60
2009,09,24,02,51,14.60
2009,09,24,02,52,14.60
2009,09,24,02,53,14.60
2009,09,24,02,54,14.60
2009,09,24,02,55,14.60
2009,09,24,02,56,14.60
2009,09,24,02,57,14.60
2009,09,24,02,58,14.60
2009,09,24,02,59,14.70
2009,09,24,03,00,14.70
2009,09,24,03,01,14.70
2009,09,24,03,02,14.80
2009,09,24,03,03,14.80
2009,09,24,03,04,14.80
2009,09,24,03,05,14.90
2009,09,24,03,06,14.90
2009,09,24,03,07,14.90
2009,09,24,03,08,14.90
2009,09,24,03,09,14.90
2009,09,24,03,10,14.90
2009,09,24,03,11,14.90
2009,09,24,03,12,14.90
2009,09,24,03,13,14.90
2009,09,24,03,14,14.80
2009,09,24,03,15,14.80
2009,09,24,03,16,14.80
2009,09,24,03,17,14.80
2009,09,24,03,18,14.80
2009,09,24,03,19,14.80
2009,09,24,03,20,14.80
2009,09,24,03,21,14.80
2009,09,24,03,22,14.80
2009,09,24,03,23,14.80
2009,09,24,03,24,14.80
2009,09,24,03,25,14.90
2009,09,24,03,26,14.90
2009,09,24,03,27,15.00
2009,09,24,03,28,15.00
2009,09,24,03,29,15.00
2009,09,24,03,30,15.00
2009,09,24,03,31,15.00
2009,09,24,03,32,14.90
2009,09,24,03,33,14.90
2009,09,24,03,34,14.90
2009,09,24,03,35,14.80
2009,09,24,03,36,14.80
2009,09,24,03,37,14.80
2009,09,24,03,38,14.80
2009,09,24,03,39,14.80
2009,09,24,03,40,14.80
2009,09,24,03,41,14.80
2009,09,24,03,42,14.80
2009,09,24,03,43,14.80
2009,09,24,03,44,14.80
2009,09,24,03,45,14.80
2009,09,24,03,46,14.80
2009,09,24,03,47,14.90
2009,09,24,03,48,14.90
2009,09,24,03,49,15.00
2009,09,24,03,50,15.00
2009,09,24,03,51,15.00
2009,09,24,03,52,15.00
2009,09,24,03,53,15.00
2009,09,24,03,54,15.00
2009,09,24,03,55,15.00
2009,09,24,03,56,15.00
2009,09,24,03,57,15.00
2009,09,24,03,58,15.00
2009,09,24,03,59,15.00
2009,09,24,04,00,15.00
2009,09,24,04,01,14.90
2009,09,24,04,02,14.90
2009,09,24,04,03,14.80
2009,09,24,04,04,14.80
2009,09,24,04,05,14.80
2009,09,24,04,06,14.70
2009,09,24,04,07,14.70
2009,09,24,04,08,14.70
2009,09,24,04,09,14.60
2009,09,24,04,10,14.60
2009,09,24,04,11,14.60
2009,09,24,04,12,14.50
2009,09,24,04,13,14.50
2009,09,24,04,14,14.40
2009,09,24,04,15,14.40
2009,09,24,04,16,14.40
2009,09,24,04,17,14.30
2009,09,24,04,18,14.30
2009,09,24,04,19,14.30
2009,09,24,04,20,14.30
2009,09,24,04,21,14.30
2009,09,24,04,22,14.30
2009,09,24,04,23,14.20
2009,09,24,04,24,14.20
2009,09,24,04,25,14.20
2009,09,24,04,26,14.20
2009,09,24,04,27,14.20
2009,09,24,04,28,14.20
2009,09,24,04,29,14.20
2009,09,24,04,30,14.20
2009,09,24,04,31,14.20
2009,09,24,04,32,14.20
2009,09,24,04,33,14.10
2009,09,24,04,34,14.10
2009,09,24,04,35,14.10
2009,09,24,04,36,14.10
2009,09,24,04,37,14.10
2009,09,24,04,38,14.10
2009,09,24,04,39,14.10
2009,09,24,04,40,14.10
2009,09,24,04,41,14.10
2009,09,24,04,42,14.00
2009,09,24,04,43,14.00
2009,09,24,04,44,14.00
2009,09,24,04,45,14.00
2009,09,24,04,46,14.00
2009,09,24,04,47,14.00
2009,09,24,04,48,14.00
2009,09,24,04,49,13.90
2009,09,24,04,50,13.90
2009,09,24,04,51,13.90
2009,09,24,04,52,13.90
2009,09,24,04,53,13.90
2009,09,24,04,54,13.90
2009,09,24,04,55,13.90
2009,09,24,04,56,13.90
2009,09,24,04,57,13.90
2009,09,24,04,58,13.80
2009,09,24,04,59,13.80
2009,09,24,05,00,13.80
2009,09,24,05,01,13.80
2009,09,24,05,02,13.80
2009,09,24,05,03,13.80
2009,09,24,05,04,13.80
2009,09,24,05,05,13.80
2009,09,24,05,06,13.80
2009,09,24,05,07,13.80
2009,09,24,05,08,13.70
2009,09,24,05,09,13.70
2009,09,24,05,10,13.70
2009,09,24,05,11,13.70
2009,09,24,05,12,13.70
2009,09,24,05,13,13.70
2009,09,24,05,14,13.70
2009,09,24,05,15,13.70
2009,09,24,05,16,13.60
2009,09,24,05,17,13.60
2009,09,24,05,18,13.60
2009,09,24,05,19,13.60
2009,09,24,05,20,13.60
2009,09,24,05,21,13.60
2009,09,24,05,22,13.60
2009,09,24,05,23,13.60
2009,09,24,05,24,13.60
2009,09,24,05,25,13.60
2009,09,24,05,26,13.60
2009,09,24,05,27,13.60
2009,09,24,05,28,13.60
2009,09,24,05,29,13.60
2009,09,24,05,30,13.50
2009,09,24,05,31,13.50
2009,09,24,05,32,13.50
2009,09,24,05,33,13.50
2009,09,24,05,34,13.50
2009,09,24,05,35,13.50
2009,09,24,05,36,13.40
2009,09,24,05,37,13.40
2009,09,24,05,38,13.40
2009,09,24,05,39,13.40
2009,09,24,05,40,13.40
2009,09,24,05,41,13.40
2009,09,24,05,42,13.40
2009,09,24,05,43,13.40
2009,09,24,05,44,13.40
2009,09,24,05,45,13.40
2009,09,24,05,46,13.40
2009,09,24,05,47,13.40
2009,09,24,05,48,13.40
2009,09,24,05,49,13.40
2009,09,24,05,50,13.40
2009,09,24,05,51,13.40
2009,09,24,05,52,13.40
2009,09,24,05,53,13.30
2009,09,24,05,54,13.30
2009,09,24,05,55,13.30
2009,09,24,05,56,13.30
2009,09,24,05,57,13.30
2009,09,24,05,58,13.30
2009,09,24,05,59,13.20
2009,09,24,06,00,13.20
2009,09,24,06,01,13.20
2009,09,24,06,02,13.20
2009,09,24,06,03,13.20
2009,09,24,06,04,13.20
2009,09,24,06,05,13.10
2009,09,24,06,06,13.10
2009,09,24,06,07,13.10
2009,09,24,06,08,13.10
2009,09,24,06,09,13.10
2009,09,24,06,10,13.10
2009,09,24,06,11,13.00
2009,09,24,06,12,13.00
2009,09,24,06,13,13.00
2009,09,24,06,14,13.00
2009,09,24,06,15,13.00
2009,09,24,06,16,13.00
2009,09,24,06,17,13.00
2009,09,24,06,18,12.90
2009,09,24,06,19,12.90
2009,09,24,06,20,12.90
2009,09,24,06,21,12.90
2009,09,24,06,22,12.90
2009,09,24,06,23,12.90
2009,09,24,06,24,12.80
2009,09,24,06,25,12.80
2009,09,24,06,26,12.80
2009,09,24,06,27,12.80
2009,09,24,06,28,12.80
2009,09,24,06,29,12.80
2009,09,24,06,30,12.80
2009,09,24,06,31,12.80
2009,09,24,06,32,12.70
2009,09,24,06,33,12.80
2009,09,24,06,34,12.70
2009,09,24,06,35,12.80
2009,09,24,06,36,12.80
2009,09,24,06,37,12.80
2009,09,24,06,38,12.80
2009,09,24,06,39,12.80
2009,09,24,06,40,12.80
2009,09,24,06,41,12.80
2009,09,24,06,42,12.70
2009,09,24,06,43,12.70
2009,09,24,06,44,12.70
2009,09,24,06,45,12.70
2009,09,24,06,46,12.70
2009,09,24,06,47,12.70
2009,09,24,06,48,12.70
2009,09,24,06,49,12.70
2009,09,24,06,50,12.70
2009,09,24,06,51,12.80
2009,09,24,06,52,12.80
2009,09,24,06,53,12.80
2009,09,24,06,54,12.80
2009,09,24,06,55,12.80
2009,09,24,06,56,12.80
2009,09,24,06,57,12.80
2009,09,24,06,58,12.80
2009,09,24,06,59,12.80
2009,09,24,07,00,12.80
2009,09,24,07,01,12.80
2009,09,24,07,02,12.70
2009,09,24,07,03,12.70
2009,09,24,07,04,12.70
2009,09,24,07,05,12.70
2009,09,24,07,06,12.70
2009,09,24,07,07,12.70
2009,09,24,07,08,12.60
2009,09,24,07,09,12.60
2009,09,24,07,10,12.60
2009,09,24,07,11,12.60
2009,09,24,07,12,12.60
2009,09,24,07,13,12.60
2009,09,24,07,14,12.60
2009,09,24,07,15,12.60
2009,09,24,07,16,12.60
2009,09,24,07,17,12.60
2009,09,24,07,18,12.60
2009,09,24,07,19,12.60
2009,09,24,07,20,12.60
2009,09,24,07,21,12.60
2009,09,24,07,22,12.60
2009,09,24,07,23,12.60
2009,09,24,07,24,12.50
2009,09,24,07,25,12.50
2009,09,24,07,26,12.50
2009,09,24,07,27,12.60
2009,09,24,07,28,12.60
2009,09,24,07,29,12.60
2009,09,24,07,30,12.60
2009,09,24,07,31,12.60
2009,09,24,07,32,12.60
2009,09,24,07,33,12.60
2009,09,24,07,34,12.60
2009,09,24,07,35,12.60
2009,09,24,07,36,12.60
2009,09,24,07,37,12.60
2009,09,24,07,38,12.60
2009,09,24,07,39,12.60
2009,09,24,07,40,12.60
2009,09,24,07,41,12.60
2009,09,24,07,42,12.60
2009,09,24,07,43,12.60
2009,09,24,07,44,12.60
2009,09,24,07,45,12.60
2009,09,24,07,46,12.60
2009,09,24,07,47,12.70
2009,09,24,07,48,12.70
2009,09,24,07,49,12.70
2009,09,24,07,50,12.80
2009,09,24,07,51,12.80
2009,09,24,07,52,12.90
2009,09,24,07,53,12.90
2009,09,24,07,54,13.00
2009,09,24,07,55,13.00
2009,09,24,07,56,13.10
2009,09,24,07,57,13.10
2009,09,24,07,58,13.10
2009,09,24,07,59,13.20
2009,09,24,08,00,13.20
2009,09,24,08,01,13.20
2009,09,24,08,02,13.30
2009,09,24,08,03,13.30
2009,09,24,08,04,13.30
2009,09,24,08,05,13.40
2009,09,24,08,06,13.40
2009,09,24,08,07,13.50
2009,09,24,08,08,13.50
2009,09,24,08,09,13.50
2009,09,24,08,10,13.60
2009,09,24,08,11,13.60
2009,09,24,08,12,13.60
2009,09,24,08,13,13.60
2009,09,24,08,14,13.70
2009,09,24,08,15,13.70
2009,09,24,08,16,13.70
2009,09,24,08,17,13.70
2009,09,24,08,18,13.80
2009,09,24,08,19,13.80
2009,09,24,08,20,13.80
2009,09,24,08,21,13.90
2009,09,24,08,22,13.90
2009,09,24,08,23,13.90
2009,09,24,08,24,14.00
2009,09,24,08,25,14.00
2009,09,24,08,26,14.10
2009,09,24,08,27,14.10
2009,09,24,08,28,14.10
2009,09,24,08,29,14.10
2009,09,24,08,30,14.10
2009,09,24,08,31,14.10
2009,09,24,08,32,14.10
2009,09,24,08,33,14.10
2009,09,24,08,34,14.10
2009,09,24,08,35,14.20
2009,09,24,08,36,14.20
2009,09,24,08,37,14.20
2009,09,24,08,38,14.20
2009,09,24,08,39,14.30
2009,09,24,08,40,14.30
2009,09,24,08,41,14.30
2009,09,24,08,42,14.30
2009,09,24,08,43,14.20
2009,09,24,08,44,14.30
2009,09,24,08,45,14.30
2009,09,24,08,46,14.30
2009,09,24,08,47,14.30
2009,09,24,08,48,14.40
2009,09,24,08,49,14.40
2009,09,24,08,50,14.40
2009,09,24,08,51,14.50
2009,09,24,08,52,14.50
2009,09,24,08,53,14.50
2009,09,24,08,54,14.60
2009,09,24,08,55,14.60
2009,09,24,08,56,14.60
2009,09,24,08,57,14.60
2009,09,24,08,58,14.70
2009,09,24,08,59,14.70
2009,09,24,09,00,14.70
2009,09,24,09,01,14.80
2009,09,24,09,02,14.80
2009,09,24,09,03,14.80
2009,09,24,09,04,14.80
2009,09,24,09,05,14.80
2009,09,24,09,06,14.80
2009,09,24,09,07,14.70
2009,09,24,09,08,14.70
2009,09,24,09,09,14.70
2009,09,24,09,10,14.70
2009,09,24,09,11,14.70
2009,09,24,09,12,14.70
2009,09,24,09,13,14.70
2009,09,24,09,14,14.80
2009,09,24,09,15,14.80
2009,09,24,09,16,14.80
2009,09,24,09,17,14.80
2009,09,24,09,18,14.80
2009,09,24,09,19,14.80
2009,09,24,09,20,14.80
2009,09,24,09,21,14.80
2009,09,24,09,22,14.80
2009,09,24,09,23,14.80
2009,09,24,09,24,14.90
2009,09,24,09,25,14.90
2009,09,24,09,26,15.00
2009,09,24,09,27,14.90
2009,09,24,09,28,14.90
2009,09,24,09,29,14.90
2009,09,24,09,30,14.90
2009,09,24,09,31,15.00
2009,09,24,09,32,15.00
2009,09,24,09,33,15.00
2009,09,24,09,34,15.00
2009,09,24,09,35,15.00
2009,09,24,09,36,15.00
2009,09,24,09,37,15.00
2009,09,24,09,38,15.00
2009,09,24,09,39,15.00
2009,09,24,09,40,15.00
2009,09,24,09,41,15.00
2009,09,24,09,42,15.00
2009,09,24,09,43,15.00
2009,09,24,09,44,15.00
2009,09,24,09,45,15.00
2009,09,24,09,46,15.10
2009,09,24,09,47,15.20
2009,09,24,09,48,15.30
2009,09,24,09,49,15.40
2009,09,24,09,50,15.50
2009,09,24,09,51,15.50
2009,09,24,09,52,15.60
2009,09,24,09,53,15.50
2009,09,24,09,54,15.50
2009,09,24,09,55,15.40
2009,09,24,09,56,15.40
2009,09,24,09,57,15.50
2009,09,24,09,58,15.50
2009,09,24,09,59,15.60
2009,09,24,10,00,15.60
2009,09,24,10,01,15.70
2009,09,24,10,02,15.80
2009,09,24,10,03,15.80
2009,09,24,10,04,15.80
2009,09,24,10,05,15.80
2009,09,24,10,06,15.80
2009,09,24,10,07,15.80
2009,09,24,10,08,15.70
2009,09,24,10,09,15.70
2009,09,24,10,10,15.60
2009,09,24,10,11,15.60
2009,09,24,10,12,15.60
2009,09,24,10,13,15.60
2009,09,24,10,14,15.50
2009,09,24,10,15,15.60
2009,09,24,10,16,15.60
2009,09,24,10,17,15.60
2009,09,24,10,18,15.70
2009,09,24,10,19,15.70
2009,09,24,10,20,15.60
2009,09,24,10,21,15.50
2009,09,24,10,22,15.40
2009,09,24,10,23,15.40
2009,09,24,10,24,15.30
2009,09,24,10,25,15.30
2009,09,24,10,26,15.30
2009,09,24,10,27,15.30
2009,09,24,10,28,15.30
2009,09,24,10,29,15.30
2009,09,24,10,30,15.30
2009,09,24,10,31,15.30
2009,09,24,10,32,15.30
2009,09,24,10,33,15.30
2009,09,24,10,34,15.40
2009,09,24,10,35,15.40
2009,09,24,10,36,15.40
2009,09,24,10,37,15.40
2009,09,24,10,38,15.50
2009,09,24,10,39,15.50
2009,09,24,10,40,15.60
2009,09,24,10,41,15.70
2009,09,24,10,42,15.70
2009,09,24,10,43,15.80
2009,09,24,10,44,15.80
2009,09,24,10,45,15.80
2009,09,24,10,46,15.80
2009,09,24,10,47,15.80
2009,09,24,10,48,15.80
2009,09,24,10,49,15.80
2009,09,24,10,50,15.80
2009,09,24,10,51,15.80
2009,09,24,10,52,15.90
2009,09,24,10,53,16.00
2009,09,24,10,54,16.00
2009,09,24,10,55,16.00
2009,09,24,10,56,15.90
2009,09,24,10,57,15.80
2009,09,24,10,58,15.80
2009,09,24,10,59,15.80
2009,09,24,11,00,15.90
2009,09,24,11,01,15.90
2009,09,24,11,02,15.90
2009,09,24,11,03,15.90
2009,09,24,11,04,16.00
2009,09,24,11,05,16.00
2009,09,24,11,06,16.10
2009,09,24,11,07,16.10
2009,09,24,11,08,16.20
2009,09,24,11,09,16.20
2009,09,24,11,10,16.30
2009,09,24,11,11,16.30
2009,09,24,11,12,16.40
2009,09,24,11,13,16.40
2009,09,24,11,14,16.30
2009,09,24,11,15,16.30
2009,09,24,11,16,16.30
2009,09,24,11,17,16.20
2009,09,24,11,18,16.20
2009,09,24,11,19,16.20
2009,09,24,11,20,16.20
2009,09,24,11,21,16.20
2009,09,24,11,22,16.20
2009,09,24,11,23,16.30
2009,09,24,11,24,16.20
2009,09,24,11,25,16.20
2009,09,24,11,26,16.20
2009,09,24,11,27,16.10
2009,09,24,11,28,16.10
2009,09,24,11,29,16.00
2009,09,24,11,30,15.90
2009,09,24,11,31,15.90
2009,09,24,11,32,15.80
2009,09,24,11,33,15.70
2009,09,24,11,34,15.60
2009,09,24,11,35,15.50
2009,09,24,11,36,15.50
2009,09,24,11,37,15.40
2009,09,24,11,38,15.40
2009,09,24,11,39,15.40
2009,09,24,11,40,15.40
2009,09,24,11,41,15.30
2009,09,24,11,42,15.20
2009,09,24,11,43,15.20
2009,09,24,11,44,15.10
2009,09,24,11,45,15.20
2009,09,24,11,46,15.30
2009,09,24,11,47,15.30
2009,09,24,11,48,15.30
2009,09,24,11,49,15.40
2009,09,24,11,50,15.50
2009,09,24,11,51,15.60
2009,09,24,11,52,15.70
2009,09,24,11,53,15.70
2009,09,24,11,54,15.80
2009,09,24,11,55,15.80
2009,09,24,11,56,15.70
2009,09,24,11,57,15.60
2009,09,24,11,58,15.50
2009,09,24,11,59,15.40
2009,09,24,12,00,15.40
2009,09,24,12,01,15.40
2009,09,24,12,02,15.30
2009,09,24,12,03,15.40
2009,09,24,12,04,15.40
2009,09,24,12,05,15.50
2009,09,24,12,06,15.50
2009,09,24,12,07,15.60
2009,09,24,12,08,15.60
2009,09,24,12,09,15.60
2009,09,24,12,10,15.60
2009,09,24,12,11,15.70
2009,09,24,12,12,15.70
2009,09,24,12,13,15.70
2009,09,24,12,14,15.70
2009,09,24,12,15,15.70
2009,09,24,12,16,15.60
2009,09,24,12,17,15.60
2009,09,24,12,18,15.50
2009,09,24,12,19,15.50
2009,09,24,12,20,15.50
2009,09,24,12,21,15.50
2009,09,24,12,22,15.60
2009,09,24,12,23,15.60
2009,09,24,12,24,15.70
2009,09,24,12,25,15.70
2009,09,24,12,26,15.80
2009,09,24,12,27,15.80
2009,09,24,12,28,15.90
2009,09,24,12,29,15.80
2009,09,24,12,30,15.80
2009,09,24,12,31,15.60
2009,09,24,12,32,15.60
2009,09,24,12,33,15.50
2009,09,24,12,34,15.50
2009,09,24,12,35,15.50
2009,09,24,12,36,15.60
2009,09,24,12,37,15.60
2009,09,24,12,38,15.70
2009,09,24,12,39,15.80
2009,09,24,12,40,15.80
2009,09,24,12,41,15.80
2009,09,24,12,42,15.90
2009,09,24,12,43,16.00
2009,09,24,12,44,16.10
2009,09,24,12,45,16.10
2009,09,24,12,46,16.20
2009,09,24,12,47,16.20
2009,09,24,12,48,16.30
2009,09,24,12,49,16.30
2009,09,24,12,50,16.30
2009,09,24,12,51,16.20
2009,09,24,12,52,16.20
2009,09,24,12,53,16.20
2009,09,24,12,54,16.20
2009,09,24,12,55,16.20
2009,09,24,12,56,16.20
2009,09,24,12,57,16.20
2009,09,24,12,58,16.20
2009,09,24,12,59,16.20
2009,09,24,13,00,16.20
2009,09,24,13,01,16.20
2009,09,24,13,02,16.20
2009,09,24,13,03,16.30
2009,09,24,13,04,16.40
2009,09,24,13,05,16.50
2009,09,24,13,06,16.60
2009,09,24,13,07,16.60
2009,09,24,13,08,16.60
2009,09,24,13,09,16.60
2009,09,24,13,10,16.60
2009,09,24,13,11,16.50
2009,09,24,13,12,16.50
2009,09,24,13,13,16.50
2009,09,24,13,14,16.40
2009,09,24,13,15,16.40
2009,09,24,13,16,16.30
2009,09,24,13,17,16.20
2009,09,24,13,18,16.20
2009,09,24,13,19,16.20
2009,09,24,13,20,16.20
2009,09,24,13,21,16.20
2009,09,24,13,22,16.20
2009,09,24,13,23,16.30
2009,09,24,13,24,16.30
2009,09,24,13,25,16.30
2009,09,24,13,26,16.30
2009,09,24,13,27,16.20
2009,09,24,13,28,16.20
2009,09,24,13,29,16.10
2009,09,24,13,30,16.10
2009,09,24,13,31,16.10
2009,09,24,13,32,16.10
2009,09,24,13,33,16.10
2009,09,24,13,34,16.10
2009,09,24,13,35,16.20
2009,09,24,13,36,16.20
2009,09,24,13,37,16.30
2009,09,24,13,38,16.40
2009,09,24,13,39,16.50
2009,09,24,13,40,16.60
2009,09,24,13,41,16.60
2009,09,24,13,42,16.70
2009,09,24,13,43,16.80
2009,09,24,13,44,16.80
2009,09,24,13,45,16.90
2009,09,24,13,46,16.80
2009,09,24,13,47,16.80
2009,09,24,13,48,16.80
2009,09,24,13,49,16.80
2009,09,24,13,50,16.80
2009,09,24,13,51,16.80
2009,09,24,13,52,16.70
2009,09,24,13,53,16.60
2009,09,24,13,54,16.50
2009,09,24,13,55,16.50
2009,09,24,13,56,16.60
2009,09,24,13,57,16.60
2009,09,24,13,58,16.70
2009,09,24,13,59,16.80
2009,09,24,14,00,16.80
2009,09,24,14,01,16.80
2009,09,24,14,02,16.80
2009,09,24,14,03,16.70
2009,09,24,14,04,16.70
2009,09,24,14,05,16.70
2009,09,24,14,06,16.70
2009,09,24,14,07,16.80
2009,09,24,14,08,16.80
2009,09,24,14,09,16.80
2009,09,24,14,10,16.80
2009,09,24,14,11,16.90
2009,09,24,14,12,17.00
2009,09,24,14,13,17.10
2009,09,24,14,14,17.10
2009,09,24,14,15,17.20
2009,09,24,14,16,17.10
2009,09,24,14,17,17.10
2009,09,24,14,18,17.20
2009,09,24,14,19,17.10
2009,09,24,14,20,17.00
2009,09,24,14,21,16.90
2009,09,24,14,22,16.80
2009,09,24,14,23,16.80
2009,09,24,14,24,16.80
2009,09,24,14,25,16.80
2009,09,24,14,26,16.80
2009,09,24,14,27,16.80
2009,09,24,14,28,16.80
2009,09,24,14,29,16.90
2009,09,24,14,30,16.90
2009,09,24,14,31,16.90
2009,09,24,14,32,16.90
2009,09,24,14,33,16.90
2009,09,24,14,34,16.90
2009,09,24,14,35,16.90
2009,09,24,14,36,16.90
2009,09,24,14,37,16.90
2009,09,24,14,38,16.90
2009,09,24,14,39,16.90
2009,09,24,14,40,16.90
2009,09,24,14,41,16.90
2009,09,24,14,42,16.90
2009,09,24,14,43,16.90
2009,09,24,14,44,17.00
2009,09,24,14,45,17.00
2009,09,24,14,46,17.00
2009,09,24,14,47,17.10
2009,09,24,14,48,17.10
2009,09,24,14,49,17.10
2009,09,24,14,50,17.10
2009,09,24,14,51,17.10
2009,09,24,14,52,17.00
2009,09,24,14,53,17.00
2009,09,24,14,54,17.00
2009,09,24,14,55,17.00
2009,09,24,14,56,17.10
2009,09,24,14,57,17.10
2009,09,24,14,58,17.20
2009,09,24,14,59,17.20
2009,09,24,15,00,17.20
2009,09,24,15,01,17.30
2009,09,24,15,02,17.30
2009,09,24,15,03,17.30
2009,09,24,15,04,17.30
2009,09,24,15,05,17.40
2009,09,24,15,06,17.40
2009,09,24,15,07,17.40
2009,09,24,15,08,17.40
2009,09,24,15,09,17.30
2009,09,24,15,10,17.30
2009,09,24,15,11,17.30
2009,09,24,15,12,17.30
2009,09,24,15,13,17.30
2009,09,24,15,14,17.30
2009,09,24,15,15,17.30
2009,09,24,15,16,17.40
2009,09,24,15,17,17.40
2009,09,24,15,18,17.40
2009,09,24,15,19,17.50
2009,09,24,15,20,17.50
2009,09,24,15,21,17.60
2009,09,24,15,22,17.60
2009,09,24,15,23,17.60
2009,09,24,15,24,17.70
2009,09,24,15,25,17.70
2009,09,24,15,26,17.70
2009,09,24,15,27,17.70
2009,09,24,15,28,17.80
2009,09,24,15,29,17.80
2009,09,24,15,30,17.80
2009,09,24,15,31,17.80
2009,09,24,15,32,17.80
2009,09,24,15,33,17.90
2009,09,24,15,34,17.90
2009,09,24,15,35,17.90
2009,09,24,15,36,17.90
2009,09,24,15,37,17.90
2009,09,24,15,38,18.00
2009,09,24,15,39,18.00
2009,09,24,15,40,18.10
2009,09,24,15,41,18.00
2009,09,24,15,42,18.00
2009,09,24,15,43,18.10
2009,09,24,15,44,18.10
2009,09,24,15,45,18.10
2009,09,24,15,46,18.20
2009,09,24,15,47,18.20
2009,09,24,15,48,18.30
2009,09,24,15,49,18.40
2009,09,24,15,50,18.40
2009,09,24,15,51,18.40
2009,09,24,15,52,18.30
2009,09,24,15,53,18.30
2009,09,24,15,54,18.30
2009,09,24,15,55,18.30
2009,09,24,15,56,18.30
2009,09,24,15,57,18.30
2009,09,24,15,58,18.30
2009,09,24,15,59,18.30
2009,09,24,16,00,18.30
2009,09,24,16,01,18.30
2009,09,24,16,02,18.20
2009,09,24,16,03,18.20
2009,09,24,16,04,18.20
2009,09,24,16,05,18.20
2009,09,24,16,06,18.20
2009,09,24,16,07,18.20
2009,09,24,16,08,18.30
2009,09,24,16,09,18.30
2009,09,24,16,10,18.30
2009,09,24,16,11,18.30
2009,09,24,16,12,18.30
2009,09,24,16,13,18.30
2009,09,24,16,14,18.40
2009,09,24,16,15,18.40
2009,09,24,16,16,18.50
2009,09,24,16,17,18.50
2009,09,24,16,18,18.50
2009,09,24,16,19,18.50
2009,09,24,16,20,18.50
2009,09,24,16,21,18.50
2009,09,24,16,22,18.50
2009,09,24,16,23,18.50
2009,09,24,16,24,18.60
2009,09,24,16,25,18.60
2009,09,24,16,26,18.60
2009,09,24,16,27,18.70
2009,09,24,16,28,18.70
2009,09,24,16,29,18.70
2009,09,24,16,30,18.80
2009,09,24,16,31,18.80
2009,09,24,16,32,18.70
2009,09,24,16,33,18.70
2009,09,24,16,34,18.80
2009,09,24,16,35,18.80
2009,09,24,16,36,18.90
2009,09,24,16,37,18.90
2009,09,24,16,38,18.80
2009,09,24,16,39,18.80
2009,09,24,16,40,18.80
2009,09,24,16,41,18.80
2009,09,24,16,42,18.80
2009,09,24,16,43,18.70
2009,09,24,16,44,18.70
2009,09,24,16,45,18.70
2009,09,24,16,46,18.70
2009,09,24,16,47,18.80
2009,09,24,16,48,18.80
2009,09,24,16,49,18.90
2009,09,24,16,50,19.00
2009,09,24,16,51,19.00
2009,09,24,16,52,19.10
2009,09,24,16,53,19.10
2009,09,24,16,54,19.10
2009,09,24,16,55,19.10
2009,09,24,16,56,19.10
2009,09,24,16,57,19.10
2009,09,24,16,58,19.10
2009,09,24,16,59,19.20
2009,09,24,17,00,19.20
2009,09,24,17,01,19.20
2009,09,24,17,02,19.10
2009,09,24,17,03,19.20
2009,09,24,17,04,19.20
2009,09,24,17,05,19.20
2009,09,24,17,06,19.20
2009,09,24,17,07,19.10
2009,09,24,17,08,19.10
2009,09,24,17,09,19.10
2009,09,24,17,10,19.10
2009,09,24,17,11,19.00
2009,09,24,17,12,19.00
2009,09,24,17,13,19.00
2009,09,24,17,14,19.00
2009,09,24,17,15,19.00
2009,09,24,17,16,19.00
2009,09,24,17,17,18.90
2009,09,24,17,18,18.80
2009,09,24,17,19,18.70